Time,TemperatureF,DewpointF,PressureIn,WindDirection,WindDirectionDegrees,WindSpeedMPH,WindSpeedGustMPH,Humidity,HourlyPrecipIn,Conditions,Clouds,dailyrainin,SoftwareType,DateUTC
2013-01-31 00:00:00,27.7,21.4,30.30,SSW,198,4.0,4.0,77,0.00,,,0.00,Wunderground v.1.15,2013-01-31 07:00:00,
2013-01-31 00:10:00,27.2,21.2,30.30,SSW,198,5.0,5.0,78,0.00,,,0.00,Wunderground v.1.15,2013-01-31 07:10:00,
2013-01-31 00:15:00,27.5,21.5,30.30,SSW,198,5.0,5.0,78,0.00,,,0.00,Wunderground v.1.15,2013-01-31 07:15:00,
2013-01-31 00:25:00,27.5,21.5,30.31,SSW,198,4.0,5.0,78,0.00,,,0.00,Wunderground v.1.15,2013-01-31 07:25:00,
2013-01-31 00:30:00,27.6,21.3,30.31,SSW,198,4.0,5.0,77,0.00,,,0.00,Wunderground v.1.15,2013-01-31 07:30:00,
2013-01-31 00:35:00,27.7,21.4,30.31,SSW,199,4.0,5.0,77,0.00,,,0.00,Wunderground v.1.15,2013-01-31 07:35:00,
2013-01-31 00:40:00,27.9,21.3,30.30,SSW,199,5.0,5.0,76,0.00,,,0.00,Wunderground v.1.15,2013-01-31 07:40:00,
2013-01-31 00:45:00,28.2,21.3,30.30,SSW,199,5.0,5.0,75,0.00,,,0.00,Wunderground v.1.15,2013-01-31 07:45:00,
2013-01-31 00:50:00,28.4,21.5,30.31,SSW,201,5.0,5.0,75,0.00,,,0.00,Wunderground v.1.15,2013-01-31 07:50:00,
2013-01-31 00:55:00,28.4,21.2,30.31,SSW,202,5.0,5.0,74,0.00,,,0.00,Wunderground v.1.15,2013-01-31 07:55:00,
2013-01-31 01:00:00,28.1,21.2,30.31,SSW,199,5.0,5.0,75,0.00,,,0.00,Wunderground v.1.15,2013-01-31 08:00:00,
2013-01-31 01:10:00,27.5,20.9,30.31,SSW,197,4.0,5.0,76,0.00,,,0.00,Wunderground v.1.15,2013-01-31 08:10:00,
2013-01-31 01:15:00,27.5,20.9,30.31,SSW,198,4.0,5.0,76,0.00,,,0.00,Wunderground v.1.15,2013-01-31 08:15:00,
2013-01-31 01:20:00,27.4,20.8,30.31,SSW,198,4.0,4.0,76,0.00,,,0.00,Wunderground v.1.15,2013-01-31 08:20:00,
2013-01-31 01:25:00,27.4,21.1,30.31,SSW,196,4.0,5.0,77,0.00,,,0.00,Wunderground v.1.15,2013-01-31 08:25:00,
2013-01-31 01:35:00,27.6,21.0,30.31,SSW,201,5.0,6.0,76,0.00,,,0.00,Wunderground v.1.15,2013-01-31 08:35:00,
2013-01-31 01:40:00,27.6,21.0,30.31,SSW,201,5.0,5.0,76,0.00,,,0.00,Wunderground v.1.15,2013-01-31 08:40:00,
2013-01-31 01:45:00,27.5,20.9,30.32,SSW,201,5.0,5.0,76,0.00,,,0.00,Wunderground v.1.15,2013-01-31 08:45:00,
2013-01-31 01:50:00,27.2,20.9,30.32,SSW,196,4.0,5.0,77,0.00,,,0.00,Wunderground v.1.15,2013-01-31 08:50:00,
2013-01-31 01:55:00,27.1,20.8,30.32,SSW,195,4.0,5.0,77,0.00,,,0.00,Wunderground v.1.15,2013-01-31 08:55:00,
2013-01-31 02:00:00,27.1,20.8,30.31,SSW,196,3.0,3.0,77,0.00,,,0.00,Wunderground v.1.15,2013-01-31 09:00:00,
2013-01-31 02:10:00,27.2,20.9,30.31,SSW,196,3.0,3.0,77,0.00,,,0.00,Wunderground v.1.15,2013-01-31 09:10:00,
2013-01-31 02:15:00,27.2,20.6,30.32,SSW,196,2.0,3.0,76,0.00,,,0.00,Wunderground v.1.15,2013-01-31 09:15:00,
2013-01-31 02:20:00,27.1,20.5,30.32,SSW,196,0.0,0.0,76,0.00,,,0.00,Wunderground v.1.15,2013-01-31 09:20:00,
2013-01-31 02:25:00,27.1,20.5,30.31,SSW,196,0.0,0.0,76,0.00,,,0.00,Wunderground v.1.15,2013-01-31 09:25:00,
2013-01-31 02:30:00,27.1,20.5,30.31,SSW,196,0.0,0.0,76,0.00,,,0.00,Wunderground v.1.15,2013-01-31 09:30:00,
2013-01-31 02:35:00,27.0,20.7,30.31,SSW,196,0.0,0.0,77,0.00,,,0.00,Wunderground v.1.15,2013-01-31 09:35:00,
2013-01-31 02:45:00,27.4,20.5,30.31,SSW,196,0.0,0.0,75,0.00,,,0.00,Wunderground v.1.15,2013-01-31 09:45:00,
2013-01-31 02:55:00,27.5,20.6,30.31,SSW,196,0.0,0.0,75,0.00,,,0.00,Wunderground v.1.15,2013-01-31 09:55:00,
2013-01-31 03:00:00,27.0,20.4,30.31,SSW,196,0.0,0.0,76,0.00,,,0.00,Wunderground v.1.15,2013-01-31 10:00:00,
2013-01-31 03:10:00,26.6,20.4,30.31,SSW,196,0.0,2.0,77,0.00,,,0.00,Wunderground v.1.15,2013-01-31 10:10:00,
2013-01-31 03:15:00,26.9,20.3,30.31,SSW,196,1.0,2.0,76,0.00,,,0.00,Wunderground v.1.15,2013-01-31 10:15:00,
2013-01-31 03:25:00,27.2,20.3,30.31,SSW,196,2.0,3.0,75,0.00,,,0.00,Wunderground v.1.15,2013-01-31 10:25:00,
2013-01-31 03:30:00,27.1,20.2,30.31,SSW,196,2.0,3.0,75,0.00,,,0.00,Wunderground v.1.15,2013-01-31 10:30:00,
2013-01-31 03:35:00,26.8,19.9,30.31,SSW,199,3.0,3.0,75,0.00,,,0.00,Wunderground v.1.15,2013-01-31 10:35:00,
2013-01-31 03:40:00,26.9,20.0,30.31,SSW,199,3.0,3.0,75,0.00,,,0.00,Wunderground v.1.15,2013-01-31 10:40:00,
2013-01-31 03:45:00,26.9,20.0,30.31,SSW,202,4.0,6.0,75,0.00,,,0.00,Wunderground v.1.15,2013-01-31 10:45:00,
2013-01-31 03:50:00,26.8,20.2,30.31,SSW,203,5.0,5.0,76,0.00,,,0.00,Wunderground v.1.15,2013-01-31 10:50:00,
2013-01-31 03:55:00,26.5,20.0,30.31,SSW,213,5.0,6.0,76,0.00,,,0.00,Wunderground v.1.15,2013-01-31 10:55:00,
2013-01-31 04:00:00,26.1,19.9,30.30,SW,217,5.0,6.0,77,0.00,,,0.00,Wunderground v.1.15,2013-01-31 11:00:00,
2013-01-31 04:10:00,26.0,20.1,30.30,SW,224,5.0,5.0,78,0.00,,,0.00,Wunderground v.1.15,2013-01-31 11:10:00,
2013-01-31 04:15:00,25.8,19.9,30.30,SW,225,4.0,5.0,78,0.00,,,0.00,Wunderground v.1.15,2013-01-31 11:15:00,
2013-01-31 04:25:00,25.3,19.7,30.30,SW,225,3.0,5.0,79,0.00,,,0.00,Wunderground v.1.15,2013-01-31 11:25:00,
2013-01-31 04:30:00,25.2,19.6,30.30,SW,223,4.0,4.0,79,0.00,,,0.00,Wunderground v.1.15,2013-01-31 11:30:00,
2013-01-31 04:35:00,25.1,19.5,30.30,SW,225,4.0,4.0,79,0.00,,,0.00,Wunderground v.1.15,2013-01-31 11:35:00,
2013-01-31 04:40:00,24.9,19.3,30.30,SW,225,5.0,5.0,79,0.00,,,0.00,Wunderground v.1.15,2013-01-31 11:40:00,
2013-01-31 04:45:00,24.8,19.5,30.30,SW,225,5.0,5.0,80,0.00,,,0.00,Wunderground v.1.15,2013-01-31 11:45:00,
2013-01-31 04:50:00,25.4,19.8,30.30,SW,221,5.0,6.0,79,0.00,,,0.00,Wunderground v.1.15,2013-01-31 11:50:00,
2013-01-31 04:55:00,25.7,19.8,30.30,SW,217,5.0,6.0,78,0.00,,,0.00,Wunderground v.1.15,2013-01-31 11:55:00,
2013-01-31 05:00:00,25.8,19.9,30.30,SW,216,5.0,5.0,78,0.00,,,0.00,Wunderground v.1.15,2013-01-31 12:00:00,
2013-01-31 05:10:00,25.7,19.8,30.30,SW,216,5.0,6.0,78,0.00,,,0.00,Wunderground v.1.15,2013-01-31 12:10:00,
2013-01-31 05:15:00,25.4,19.8,30.30,SW,216,5.0,6.0,79,0.00,,,0.00,Wunderground v.1.15,2013-01-31 12:15:00,
2013-01-31 05:20:00,25.1,19.5,30.30,SSW,213,5.0,6.0,79,0.00,,,0.00,Wunderground v.1.15,2013-01-31 12:20:00,
2013-01-31 05:30:00,25.1,19.8,30.30,SSW,204,6.0,6.0,80,0.00,,,0.00,Wunderground v.1.15,2013-01-31 12:30:00,
2013-01-31 05:35:00,25.7,19.8,30.30,SSW,204,6.0,6.0,78,0.00,,,0.00,Wunderground v.1.15,2013-01-31 12:35:00,
2013-01-31 05:40:00,25.7,19.8,30.30,SSW,205,5.0,5.0,78,0.00,,,0.00,Wunderground v.1.15,2013-01-31 12:40:00,
2013-01-31 05:45:00,25.5,19.6,30.30,SSW,205,5.0,6.0,78,0.00,,,0.00,Wunderground v.1.15,2013-01-31 12:45:00,
2013-01-31 05:50:00,25.2,19.3,30.30,SSW,205,6.0,6.0,78,0.00,,,0.00,Wunderground v.1.15,2013-01-31 12:50:00,
2013-01-31 05:55:00,25.1,19.5,30.30,SSW,205,6.0,6.0,79,0.00,,,0.00,Wunderground v.1.15,2013-01-31 12:55:00,
2013-01-31 06:00:00,25.4,19.8,30.30,SSW,205,6.0,6.0,79,0.00,,,0.00,Wunderground v.1.15,2013-01-31 13:00:00,
2013-01-31 06:10:00,25.4,19.8,30.30,SSW,205,5.0,5.0,79,0.00,,,0.00,Wunderground v.1.15,2013-01-31 13:10:00,
2013-01-31 06:15:00,25.0,19.4,30.29,SSW,205,5.0,6.0,79,0.00,,,0.00,Wunderground v.1.15,2013-01-31 13:15:00,
2013-01-31 06:25:00,24.4,19.4,30.29,SSW,205,5.0,6.0,81,0.00,,,0.00,Wunderground v.1.15,2013-01-31 13:25:00,
2013-01-31 06:30:00,24.6,19.6,30.29,SSW,205,5.0,5.0,81,0.00,,,0.00,Wunderground v.1.15,2013-01-31 13:30:00,
2013-01-31 06:35:00,24.8,19.5,30.29,SSW,205,5.0,5.0,80,0.00,,,0.00,Wunderground v.1.15,2013-01-31 13:35:00,
2013-01-31 06:40:00,25.2,19.9,30.29,SSW,205,5.0,5.0,80,0.00,,,0.00,Wunderground v.1.15,2013-01-31 13:40:00,
2013-01-31 06:45:00,25.6,20.0,30.29,SSW,205,5.0,5.0,79,0.00,,,0.00,Wunderground v.1.15,2013-01-31 13:45:00,
2013-01-31 06:55:00,25.9,20.0,30.29,SSW,207,5.0,5.0,78,0.00,,,0.00,Wunderground v.1.15,2013-01-31 13:55:00,
2013-01-31 07:00:00,26.1,20.2,30.29,SSW,210,5.0,6.0,78,0.00,,,0.00,Wunderground v.1.15,2013-01-31 14:00:00,
2013-01-31 07:10:00,26.2,20.0,30.30,SW,220,5.0,5.0,77,0.00,,,0.00,Wunderground v.1.15,2013-01-31 14:10:00,
2013-01-31 07:15:00,26.2,20.0,30.30,SW,236,5.0,6.0,77,0.00,,,0.00,Wunderground v.1.15,2013-01-31 14:15:00,
2013-01-31 07:20:00,26.1,19.9,30.30,WSW,246,5.0,6.0,77,0.00,,,0.00,Wunderground v.1.15,2013-01-31 14:20:00,
2013-01-31 07:25:00,26.3,20.1,30.30,WSW,248,6.0,6.0,77,0.00,,,0.00,Wunderground v.1.15,2013-01-31 14:25:00,
2013-01-31 07:35:00,28.2,21.0,30.30,WSW,252,6.0,7.0,74,0.00,,,0.00,Wunderground v.1.15,2013-01-31 14:35:00,
2013-01-31 07:40:00,29.2,21.3,30.31,WSW,254,6.0,6.0,72,0.00,,,0.00,Wunderground v.1.15,2013-01-31 14:40:00,
2013-01-31 07:45:00,30.2,21.6,30.31,West,263,6.0,7.0,70,0.00,,,0.00,Wunderground v.1.15,2013-01-31 14:45:00,
2013-01-31 07:50:00,31.6,22.2,30.31,WSW,258,6.0,6.0,68,0.00,,,0.00,Wunderground v.1.15,2013-01-31 14:50:00,
2013-01-31 08:00:00,32.8,23.4,30.31,WSW,257,3.0,5.0,68,0.00,,,0.00,Wunderground v.1.15,2013-01-31 15:00:00,
2013-01-31 08:10:00,34.5,23.6,30.31,West,269,5.0,7.0,64,0.00,,,0.00,Wunderground v.1.15,2013-01-31 15:10:00,
2013-01-31 08:15:00,35.1,23.8,30.31,West,275,5.0,7.0,63,0.00,,,0.00,Wunderground v.1.15,2013-01-31 15:15:00,
2013-01-31 08:25:00,36.1,23.9,30.30,West,264,7.0,7.0,61,0.00,,,0.00,Wunderground v.1.15,2013-01-31 15:25:00,
2013-01-31 08:30:00,36.8,23.8,30.30,West,265,6.0,6.0,59,0.00,,,0.00,Wunderground v.1.15,2013-01-31 15:30:00,
2013-01-31 08:35:00,37.4,23.5,30.30,West,272,5.0,6.0,57,0.00,,,0.00,Wunderground v.1.15,2013-01-31 15:35:00,
2013-01-31 08:40:00,37.9,23.6,30.30,West,262,5.0,6.0,56,0.00,,,0.00,Wunderground v.1.15,2013-01-31 15:40:00,
2013-01-31 08:45:00,38.4,23.6,30.30,West,268,5.0,6.0,55,0.00,,,0.00,Wunderground v.1.15,2013-01-31 15:45:00,
2013-01-31 08:50:00,38.7,23.5,30.30,West,270,5.0,5.0,54,0.00,,,0.00,Wunderground v.1.15,2013-01-31 15:50:00,
2013-01-31 08:55:00,39.0,23.3,30.30,West,276,5.0,8.0,53,0.00,,,0.00,Wunderground v.1.15,2013-01-31 15:55:00,
2013-01-31 09:00:00,39.1,22.9,30.30,WSW,240,6.0,6.0,52,0.00,,,0.00,Wunderground v.1.15,2013-01-31 16:00:00,
2013-01-31 09:10:00,39.9,22.7,30.30,West,275,7.0,7.0,50,0.00,,,0.00,Wunderground v.1.15,2013-01-31 16:10:00,
2013-01-31 09:20:00,40.6,22.9,30.30,West,265,5.0,5.0,49,0.00,,,0.00,Wunderground v.1.15,2013-01-31 16:20:00,
2013-01-31 09:30:00,41.1,23.4,30.30,West,279,5.0,5.0,49,0.00,,,0.00,Wunderground v.1.15,2013-01-31 16:30:00,
2013-01-31 09:35:00,41.5,22.7,30.30,West,263,4.0,5.0,47,0.00,,,0.00,Wunderground v.1.15,2013-01-31 16:35:00,
2013-01-31 09:45:00,42.3,24.0,30.29,WNW,292,3.0,4.0,48,0.00,,,0.00,Wunderground v.1.15,2013-01-31 16:45:00,
2013-01-31 09:50:00,42.6,23.2,30.29,West,265,4.0,4.0,46,0.00,,,0.00,Wunderground v.1.15,2013-01-31 16:50:00,
2013-01-31 09:55:00,42.8,23.4,30.29,West,268,5.0,5.0,46,0.00,,,0.00,Wunderground v.1.15,2013-01-31 16:55:00,
2013-01-31 10:00:00,43.3,24.4,30.29,West,272,4.0,7.0,47,0.00,,,0.00,Wunderground v.1.15,2013-01-31 17:00:00,
2013-01-31 10:10:00,43.6,24.7,30.30,NW,309,5.0,5.0,47,0.00,,,0.00,Wunderground v.1.15,2013-01-31 17:10:00,
2013-01-31 10:15:00,43.6,25.2,30.30,West,263,4.0,5.0,48,0.00,,,0.00,Wunderground v.1.15,2013-01-31 17:15:00,
2013-01-31 10:20:00,43.8,24.3,30.30,West,279,3.0,5.0,46,0.00,,,0.00,Wunderground v.1.15,2013-01-31 17:20:00,
2013-01-31 10:25:00,44.1,24.6,30.30,WNW,294,3.0,5.0,46,0.00,,,0.00,Wunderground v.1.15,2013-01-31 17:25:00,
2013-01-31 10:30:00,44.4,25.4,30.30,WNW,294,3.0,3.0,47,0.00,,,0.00,Wunderground v.1.15,2013-01-31 17:30:00,
2013-01-31 10:35:00,44.5,25.0,30.30,WNW,290,3.0,3.0,46,0.00,,,0.00,Wunderground v.1.15,2013-01-31 17:35:00,
2013-01-31 10:40:00,44.5,25.5,30.30,WNW,290,3.0,3.0,47,0.00,,,0.00,Wunderground v.1.15,2013-01-31 17:40:00,
2013-01-31 10:50:00,44.9,26.4,30.30,WNW,292,3.0,3.0,48,0.00,,,0.00,Wunderground v.1.15,2013-01-31 17:50:00,
2013-01-31 10:55:00,44.9,26.9,30.30,NW,306,2.0,3.0,49,0.00,,,0.00,Wunderground v.1.15,2013-01-31 17:55:00,
2013-01-31 11:00:00,45.1,25.5,30.30,NW,306,2.0,4.0,46,0.00,,,0.00,Wunderground v.1.15,2013-01-31 18:00:00,
2013-01-31 11:10:00,45.6,26.5,30.30,WNW,286,4.0,4.0,47,0.00,,,0.00,Wunderground v.1.15,2013-01-31 18:10:00,
2013-01-31 11:20:00,46.1,25.9,30.29,WNW,292,3.0,4.0,45,0.00,,,0.00,Wunderground v.1.15,2013-01-31 18:20:00,
2013-01-31 11:25:00,46.6,26.4,30.29,WNW,298,3.0,5.0,45,0.00,,,0.00,Wunderground v.1.15,2013-01-31 18:25:00,
2013-01-31 11:30:00,46.9,26.1,30.28,NW,313,3.0,3.0,44,0.00,,,0.00,Wunderground v.1.15,2013-01-31 18:30:00,
2013-01-31 11:35:00,47.4,27.1,30.28,NW,320,3.0,3.0,45,0.00,,,0.00,Wunderground v.1.15,2013-01-31 18:35:00,
2013-01-31 11:45:00,48.0,26.5,30.28,NW,323,2.0,3.0,43,0.00,,,0.00,Wunderground v.1.15,2013-01-31 18:45:00,
2013-01-31 11:50:00,48.2,25.0,30.28,WNW,302,1.0,1.0,40,0.00,,,0.00,Wunderground v.1.15,2013-01-31 18:50:00,
2013-01-31 11:55:00,48.5,25.2,30.28,WNW,282,0.0,1.0,40,0.00,,,0.00,Wunderground v.1.15,2013-01-31 18:55:00,
2013-01-31 12:00:00,48.8,25.5,30.28,WNW,282,0.0,0.0,40,0.00,,,0.00,Wunderground v.1.15,2013-01-31 19:00:00,
2013-01-31 12:10:00,49.4,24.8,30.27,West,276,1.0,1.0,38,0.00,,,0.00,Wunderground v.1.15,2013-01-31 19:10:00,
2013-01-31 12:15:00,49.7,25.7,30.27,NW,304,1.0,1.0,39,0.00,,,0.00,Wunderground v.1.15,2013-01-31 19:15:00,
2013-01-31 12:20:00,49.9,25.9,30.27,WNW,295,1.0,1.0,39,0.00,,,0.00,Wunderground v.1.15,2013-01-31 19:20:00,
2013-01-31 12:30:00,50.5,27.0,30.26,NW,326,1.0,4.0,40,0.00,,,0.00,Wunderground v.1.15,2013-01-31 19:30:00,
2013-01-31 12:35:00,50.6,26.5,30.26,WNW,289,1.0,4.0,39,0.00,,,0.00,Wunderground v.1.15,2013-01-31 19:35:00,
2013-01-31 12:40:00,50.9,26.8,30.26,NW,325,1.0,5.0,39,0.00,,,0.00,Wunderground v.1.15,2013-01-31 19:40:00,
2013-01-31 12:45:00,50.9,26.8,30.26,NNW,329,2.0,6.0,39,0.00,,,0.00,Wunderground v.1.15,2013-01-31 19:45:00,
2013-01-31 12:55:00,51.1,27.0,30.25,NW,317,5.0,6.0,39,0.00,,,0.00,Wunderground v.1.15,2013-01-31 19:55:00,
2013-01-31 13:00:00,51.4,27.2,30.25,NW,324,4.0,6.0,39,0.00,,,0.00,Wunderground v.1.15,2013-01-31 20:00:00,
2013-01-31 13:10:00,51.8,25.7,30.24,NW,307,5.0,5.0,36,0.00,,,0.00,Wunderground v.1.15,2013-01-31 20:10:00,
2013-01-31 13:15:00,51.8,25.7,30.24,NNW,332,3.0,5.0,36,0.00,,,0.00,Wunderground v.1.15,2013-01-31 20:15:00,
2013-01-31 13:20:00,51.8,24.3,30.24,NW,319,3.0,3.0,34,0.00,,,0.00,Wunderground v.1.15,2013-01-31 20:20:00,
2013-01-31 13:25:00,51.8,24.3,30.23,WNW,297,3.0,3.0,34,0.00,,,0.00,Wunderground v.1.15,2013-01-31 20:25:00,
2013-01-31 13:30:00,52.1,24.6,30.23,NNW,344,2.0,2.0,34,0.00,,,0.00,Wunderground v.1.15,2013-01-31 20:30:00,
2013-01-31 13:40:00,52.7,24.4,30.23,North,5,3.0,3.0,33,0.00,,,0.00,Wunderground v.1.15,2013-01-31 20:40:00,
2013-01-31 13:50:00,52.5,24.2,30.23,NNW,341,3.0,3.0,33,0.00,,,0.00,Wunderground v.1.15,2013-01-31 20:50:00,
2013-01-31 13:55:00,52.6,25.0,30.23,WNW,298,2.0,3.0,34,0.00,,,0.00,Wunderground v.1.15,2013-01-31 20:55:00,
2013-01-31 14:00:00,52.6,24.3,30.23,WNW,286,1.0,1.0,33,0.00,,,0.00,Wunderground v.1.15,2013-01-31 21:00:00,
2013-01-31 14:10:00,52.9,23.8,30.23,North,355,1.0,2.0,32,0.00,,,0.00,Wunderground v.1.15,2013-01-31 21:10:00,
2013-01-31 14:15:00,53.0,23.9,30.23,North,355,1.0,2.0,32,0.00,,,0.00,Wunderground v.1.15,2013-01-31 21:15:00,
2013-01-31 14:20:00,52.9,23.8,30.23,NNW,346,1.0,1.0,32,0.00,,,0.00,Wunderground v.1.15,2013-01-31 21:20:00,
2013-01-31 14:25:00,52.9,23.8,30.23,NNW,346,1.0,1.0,32,0.00,,,0.00,Wunderground v.1.15,2013-01-31 21:25:00,
2013-01-31 14:30:00,53.3,24.2,30.23,North,9,0.0,0.0,32,0.00,,,0.00,Wunderground v.1.15,2013-01-31 21:30:00,
2013-01-31 14:35:00,53.4,24.2,30.23,North,9,0.0,1.0,32,0.00,,,0.00,Wunderground v.1.15,2013-01-31 21:35:00,
2013-01-31 14:45:00,53.3,24.9,30.22,North,355,0.0,1.0,33,0.00,,,0.00,Wunderground v.1.15,2013-01-31 21:45:00,
2013-01-31 14:50:00,53.3,24.2,30.22,North,355,0.0,0.0,32,0.00,,,0.00,Wunderground v.1.15,2013-01-31 21:50:00,
2013-01-31 14:55:00,53.5,25.1,30.22,North,355,0.0,0.0,33,0.00,,,0.00,Wunderground v.1.15,2013-01-31 21:55:00,
2013-01-31 15:00:00,53.5,24.3,30.22,NW,317,0.0,0.0,32,0.00,,,0.00,Wunderground v.1.15,2013-01-31 22:00:00,
2013-01-31 15:10:00,53.5,24.3,30.22,NNW,336,0.0,0.0,32,0.00,,,0.00,Wunderground v.1.15,2013-01-31 22:10:00,
2013-01-31 15:15:00,53.5,25.1,30.22,NW,315,1.0,1.0,33,0.00,,,0.00,Wunderground v.1.15,2013-01-31 22:15:00,
2013-01-31 15:20:00,53.6,25.2,30.21,NW,315,1.0,1.0,33,0.00,,,0.00,Wunderground v.1.15,2013-01-31 22:20:00,
2013-01-31 15:25:00,53.7,25.2,30.21,NNW,345,1.0,1.0,33,0.00,,,0.00,Wunderground v.1.15,2013-01-31 22:25:00,
2013-01-31 15:30:00,53.7,25.2,30.21,North,360,1.0,1.0,33,0.00,,,0.00,Wunderground v.1.15,2013-01-31 22:30:00,
2013-01-31 15:40:00,53.8,26.8,30.22,NW,321,2.0,3.0,35,0.00,,,0.00,Wunderground v.1.15,2013-01-31 22:40:00,
2013-01-31 15:50:00,53.9,26.8,30.22,NW,319,1.0,2.0,35,0.00,,,0.00,Wunderground v.1.15,2013-01-31 22:50:00,
2013-01-31 15:55:00,53.9,26.1,30.21,NW,321,1.0,2.0,34,0.00,,,0.00,Wunderground v.1.15,2013-01-31 22:55:00,
2013-01-31 16:00:00,53.9,25.4,30.22,NNW,327,1.0,1.0,33,0.00,,,0.00,Wunderground v.1.15,2013-01-31 23:00:00,
2013-01-31 16:10:00,54.0,24.8,30.22,NNW,327,0.0,0.0,32,0.00,,,0.00,Wunderground v.1.15,2013-01-31 23:10:00,
2013-01-31 16:15:00,54.3,24.3,30.22,NW,325,0.0,0.0,31,0.00,,,0.00,Wunderground v.1.15,2013-01-31 23:15:00,
2013-01-31 16:20:00,54.5,25.2,30.21,NW,325,0.0,0.0,32,0.00,,,0.00,Wunderground v.1.15,2013-01-31 23:20:00,
2013-01-31 16:25:00,54.7,23.8,30.21,West,280,0.0,0.0,30,0.00,,,0.00,Wunderground v.1.15,2013-01-31 23:25:00,
2013-01-31 16:30:00,55.1,24.2,30.21,West,280,0.0,0.0,30,0.00,,,0.00,Wunderground v.1.15,2013-01-31 23:30:00,
2013-01-31 16:35:00,55.5,24.5,30.21,WNW,291,0.0,2.0,30,0.00,,,0.00,Wunderground v.1.15,2013-01-31 23:35:00,
2013-01-31 16:40:00,55.5,24.5,30.21,WNW,294,0.0,0.0,30,0.00,,,0.00,Wunderground v.1.15,2013-01-31 23:40:00,
2013-01-31 16:45:00,55.2,25.1,30.21,WNW,285,1.0,1.0,31,0.00,,,0.00,Wunderground v.1.15,2013-01-31 23:45:00,
2013-01-31 16:50:00,54.7,24.6,30.21,West,279,2.0,2.0,31,0.00,,,0.00,Wunderground v.1.15,2013-01-31 23:50:00,
2013-01-31 17:00:00,54.1,26.3,30.20,WNW,288,3.0,3.0,34,0.00,,,0.00,Wunderground v.1.15,2013-02-01 00:00:00,
2013-01-31 17:10:00,53.6,27.3,30.20,WNW,290,4.0,4.0,36,0.00,,,0.00,Wunderground v.1.15,2013-02-01 00:10:00,
2013-01-31 17:15:00,53.1,28.1,30.20,WNW,292,4.0,4.0,38,0.00,,,0.00,Wunderground v.1.15,2013-02-01 00:15:00,
2013-01-31 17:20:00,52.7,27.1,30.20,WNW,288,3.0,3.0,37,0.00,,,0.00,Wunderground v.1.15,2013-02-01 00:20:00,
2013-01-31 17:25:00,52.2,29.2,30.20,WNW,293,1.0,3.0,41,0.00,,,0.00,Wunderground v.1.15,2013-02-01 00:25:00,
2013-01-31 17:35:00,50.8,28.5,30.20,WNW,294,2.0,2.0,42,0.00,,,0.00,Wunderground v.1.15,2013-02-01 00:35:00,
2013-01-31 17:40:00,50.4,27.6,30.20,WNW,294,1.0,1.0,41,0.00,,,0.00,Wunderground v.1.15,2013-02-01 00:40:00,
2013-01-31 17:45:00,50.0,27.2,30.20,WNW,294,0.0,1.0,41,0.00,,,0.00,Wunderground v.1.15,2013-02-01 00:45:00,
2013-01-31 17:50:00,49.4,26.7,30.20,WNW,294,1.0,2.0,41,0.00,,,0.00,Wunderground v.1.15,2013-02-01 00:50:00,
2013-01-31 17:55:00,49.0,26.9,30.20,WNW,294,1.0,2.0,42,0.00,,,0.00,Wunderground v.1.15,2013-02-01 00:55:00,
2013-01-31 18:00:00,47.9,25.9,30.20,West,275,2.0,3.0,42,0.00,,,0.00,Wunderground v.1.15,2013-02-01 01:00:00,
2013-01-31 18:10:00,45.0,25.4,30.20,WSW,244,3.0,4.0,46,0.00,,,0.00,Wunderground v.1.15,2013-02-01 01:10:00,
2013-01-31 18:15:00,43.9,25.5,30.20,SW,217,4.0,4.0,48,0.00,,,0.00,Wunderground v.1.15,2013-02-01 01:15:00,
2013-01-31 18:20:00,42.8,25.9,30.20,SSW,211,4.0,6.0,51,0.00,,,0.00,Wunderground v.1.15,2013-02-01 01:20:00,
2013-01-31 18:25:00,42.0,26.5,30.21,SSW,205,6.0,6.0,54,0.00,,,0.00,Wunderground v.1.15,2013-02-01 01:25:00,
2013-01-31 18:30:00,41.3,26.8,30.21,SSW,209,5.0,6.0,56,0.00,,,0.00,Wunderground v.1.15,2013-02-01 01:30:00,
2013-01-31 18:35:00,40.4,26.8,30.22,SSW,206,5.0,6.0,58,0.00,,,0.00,Wunderground v.1.15,2013-02-01 01:35:00,
2013-01-31 18:40:00,40.2,26.6,30.22,SSW,212,6.0,6.0,58,0.00,,,0.00,Wunderground v.1.15,2013-02-01 01:40:00,
2013-01-31 18:45:00,40.1,26.5,30.22,SSW,211,6.0,6.0,58,0.00,,,0.00,Wunderground v.1.15,2013-02-01 01:45:00,
2013-01-31 18:50:00,39.8,26.6,30.22,SSW,213,6.0,6.0,59,0.00,,,0.00,Wunderground v.1.15,2013-02-01 01:50:00,
2013-01-31 19:00:00,39.5,27.5,30.23,SSW,200,6.0,7.0,62,0.00,,,0.00,Wunderground v.1.15,2013-02-01 02:00:00,
2013-01-31 19:10:00,39.7,28.1,30.23,SW,214,6.0,6.0,63,0.00,,,0.00,Wunderground v.1.15,2013-02-01 02:10:00,
2013-01-31 19:15:00,39.2,28.0,30.24,SW,216,6.0,6.0,64,0.00,,,0.00,Wunderground v.1.15,2013-02-01 02:15:00,
2013-01-31 19:25:00,39.4,27.8,30.23,SW,214,5.0,6.0,63,0.00,,,0.00,Wunderground v.1.15,2013-02-01 02:25:00,
2013-01-31 19:35:00,39.2,27.7,30.24,SSW,213,5.0,6.0,63,0.00,,,0.00,Wunderground v.1.15,2013-02-01 02:35:00,
2013-01-31 19:40:00,38.6,27.1,30.24,SSW,213,5.0,5.0,63,0.00,,,0.00,Wunderground v.1.15,2013-02-01 02:40:00,
2013-01-31 19:45:00,38.1,27.4,30.24,SSW,213,5.0,5.0,65,0.00,,,0.00,Wunderground v.1.15,2013-02-01 02:45:00,
2013-01-31 19:50:00,37.8,27.5,30.24,SSW,213,4.0,4.0,66,0.00,,,0.00,Wunderground v.1.15,2013-02-01 02:50:00,
2013-01-31 19:55:00,37.6,26.9,30.25,SW,215,5.0,5.0,65,0.00,,,0.00,Wunderground v.1.15,2013-02-01 02:55:00,
2013-01-31 20:00:00,37.7,27.4,30.25,SW,215,5.0,5.0,66,0.00,,,0.00,Wunderground v.1.15,2013-02-01 03:00:00,
2013-01-31 20:10:00,37.3,27.0,30.25,SSW,213,3.0,3.0,66,0.00,,,0.00,Wunderground v.1.15,2013-02-01 03:10:00,
2013-01-31 20:15:00,37.3,26.6,30.25,SW,218,2.0,3.0,65,0.00,,,0.00,Wunderground v.1.15,2013-02-01 03:15:00,
2013-01-31 20:25:00,37.6,26.9,30.25,SSW,203,4.0,4.0,65,0.00,,,0.00,Wunderground v.1.15,2013-02-01 03:25:00,
2013-01-31 20:30:00,36.8,26.5,30.25,SSW,204,5.0,5.0,66,0.00,,,0.00,Wunderground v.1.15,2013-02-01 03:30:00,
2013-01-31 20:40:00,36.2,26.3,30.25,SSW,204,6.0,6.0,67,0.00,,,0.00,Wunderground v.1.15,2013-02-01 03:40:00,
2013-01-31 20:50:00,35.9,26.0,30.24,SSW,208,6.0,6.0,67,0.00,,,0.00,Wunderground v.1.15,2013-02-01 03:50:00,
2013-01-31 20:55:00,35.7,25.8,30.24,SSW,208,5.0,6.0,67,0.00,,,0.00,Wunderground v.1.15,2013-02-01 03:55:00,
2013-01-31 21:00:00,35.6,25.7,30.24,SSW,209,4.0,6.0,67,0.00,,,0.00,Wunderground v.1.15,2013-02-01 04:00:00,
2013-01-31 21:10:00,35.0,25.5,30.24,SSW,209,6.0,6.0,68,0.00,,,0.00,Wunderground v.1.15,2013-02-01 04:10:00,
2013-01-31 21:20:00,34.0,25.2,30.23,SSW,203,6.0,6.0,70,0.00,,,0.00,Wunderground v.1.15,2013-02-01 04:20:00,
2013-01-31 21:25:00,33.8,25.0,30.23,SSW,203,6.0,6.0,70,0.00,,,0.00,Wunderground v.1.15,2013-02-01 04:25:00,
2013-01-31 21:30:00,33.5,24.8,30.23,SSW,199,6.0,7.0,70,0.00,,,0.00,Wunderground v.1.15,2013-02-01 04:30:00,
2013-01-31 21:40:00,33.1,24.7,30.23,SSW,196,6.0,7.0,71,0.00,,,0.00,Wunderground v.1.15,2013-02-01 04:40:00,
2013-01-31 21:45:00,32.9,24.5,30.22,SSW,196,6.0,7.0,71,0.00,,,0.00,Wunderground v.1.15,2013-02-01 04:45:00,
2013-01-31 21:50:00,32.6,24.2,30.23,SSW,196,5.0,5.0,71,0.00,,,0.00,Wunderground v.1.15,2013-02-01 04:50:00,
2013-01-31 21:55:00,32.5,24.5,30.23,SSW,199,5.0,6.0,72,0.00,,,0.00,Wunderground v.1.15,2013-02-01 04:55:00,
2013-01-31 22:01:00,32.4,24.0,30.23,SSW,210,6.0,7.0,71,0.00,,,0.00,Wunderground v.1.15,2013-02-01 05:01:00,
2013-01-31 22:05:00,32.2,24.2,30.23,SSW,210,6.0,7.0,72,0.00,,,0.00,Wunderground v.1.15,2013-02-01 05:05:00,
2013-01-31 22:10:00,32.4,24.0,30.23,SSW,212,6.0,6.0,71,0.00,,,0.00,Wunderground v.1.15,2013-02-01 05:10:00,
2013-01-31 22:15:00,31.8,23.8,30.23,SW,224,6.0,7.0,72,0.00,,,0.00,Wunderground v.1.15,2013-02-01 05:15:00,
2013-01-31 22:25:00,32.0,24.0,30.23,SW,232,7.0,8.0,72,0.00,,,0.00,Wunderground v.1.15,2013-02-01 05:25:00,
2013-01-31 22:35:00,33.4,24.0,30.23,SW,227,5.0,6.0,68,0.00,,,0.00,Wunderground v.1.15,2013-02-01 05:35:00,
2013-01-31 22:40:00,33.6,23.8,30.23,SW,232,5.0,5.0,67,0.00,,,0.00,Wunderground v.1.15,2013-02-01 05:40:00,
2013-01-31 22:45:00,33.7,23.5,30.23,SW,233,4.0,5.0,66,0.00,,,0.00,Wunderground v.1.15,2013-02-01 05:45:00,
2013-01-31 22:55:00,34.4,23.5,30.24,SW,226,5.0,5.0,64,0.00,,,0.00,Wunderground v.1.15,2013-02-01 05:55:00,
2013-01-31 23:00:00,34.3,23.4,30.24,SW,232,5.0,5.0,64,0.00,,,0.00,Wunderground v.1.15,2013-02-01 06:00:00,
2013-01-31 23:10:00,33.9,23.0,30.24,WSW,242,5.0,5.0,64,0.00,,,0.00,Wunderground v.1.15,2013-02-01 06:10:00,
2013-01-31 23:15:00,34.1,22.8,30.24,WSW,241,5.0,5.0,63,0.00,,,0.00,Wunderground v.1.15,2013-02-01 06:15:00,
2013-01-31 23:25:00,33.5,22.6,30.25,WSW,241,5.0,6.0,64,0.00,,,0.00,Wunderground v.1.15,2013-02-01 06:25:00,
2013-01-31 23:30:00,33.5,23.4,30.25,SW,234,5.0,5.0,66,0.00,,,0.00,Wunderground v.1.15,2013-02-01 06:30:00,
2013-01-31 23:35:00,33.8,23.6,30.25,SW,226,5.0,5.0,66,0.00,,,0.00,Wunderground v.1.15,2013-02-01 06:35:00,
2013-01-31 23:40:00,33.4,23.3,30.25,WSW,246,5.0,5.0,66,0.00,,,0.00,Wunderground v.1.15,2013-02-01 06:40:00,
2013-01-31 23:45:00,32.9,23.1,30.25,WSW,251,5.0,5.0,67,0.00,,,0.00,Wunderground v.1.15,2013-02-01 06:45:00,
2013-01-31 23:55:00,32.8,23.0,30.25,WSW,242,4.0,6.0,67,0.00,,,0.00,Wunderground v.1.15,2013-02-01 06:55:00,